CST,Max TemperatureF,Mean TemperatureF,Min TemperatureF,Max Dew PointF,MeanDew PointF,Min DewpointF,Max Humidity, Mean Humidity, Min Humidity, Max Sea Level PressureIn, Mean Sea Level PressureIn, Min Sea Level PressureIn, Max VisibilityMiles, Mean VisibilityMiles, Min VisibilityMiles, Max Wind SpeedMPH, Mean Wind SpeedMPH, Max Gust SpeedMPH,PrecipitationIn, CloudCover, Events, WindDirDegrees
2012-12-1,64,50,34,37,33,28,89,58,30,29.90,29.79,29.72,10,10,10,21,12,24,0.00,0,,255
2012-12-2,67,50,34,34,31,28,89,52,23,29.91,29.77,29.55,10,10,10,29,12,39,0.00,0,,195
2012-12-3,54,43,32,37,25,13,65,45,20,30.11,29.84,29.52,10,10,10,36,18,48,0.00,0,,274
2012-12-4,56,42,28,24,20,13,73,49,18,30.28,30.18,30.10,10,10,10,12,8,16,0.00,0,,233
2012-12-5,61,48,34,35,22,17,54,38,19,30.11,29.87,29.71,10,10,10,22,14,28,0.00,1,,199
2012-12-6,56,45,33,37,23,13,66,48,31,30.04,29.96,29.78,10,10,7,31,12,39,0.00,8,Snow,340
2012-12-7,43,36,28,26,24,22,83,67,45,29.97,29.89,29.80,10,10,10,22,8,30,0.00,7,,184
2012-12-8,42,30,17,27,23,16,93,73,46,29.96,29.77,29.62,10,10,2,24,9,30,0.00,6,Snow,184
2012-12-9,28,15,2,26,4,-4,87,75,67,30.24,30.09,29.83,10,7,1,34,22,47,0.00,5,Snow,312
2012-12-10,33,16,-1,22,8,-8,83,66,44,30.14,29.88,29.78,10,10,10,22,8,30,0.02,2,,264
2012-12-11,41,29,17,20,15,10,86,60,31,29.90,29.84,29.72,10,10,10,20,10,23,0.00,1,,237
2012-12-12,58,44,29,16,12,10,50,35,15,29.80,29.72,29.68,10,10,10,18,14,23,0.00,0,,208
2012-12-13,41,34,27,25,21,14,76,61,38,30.02,29.94,29.80,10,10,10,18,8,,0.00,0,,219
2012-12-14,45,33,21,34,24,17,96,66,38,29.92,29.72,29.52,10,9,2,15,8,,0.20,2,Rain,170
2012-12-15,37,31,25,35,27,20,97,81,64,29.74,29.63,29.49,10,8,2,21,10,24,0.03,5,Rain,323
2012-12-16,41,32,24,24,21,14,90,70,33,29.75,29.70,29.64,10,10,10,17,6,18,0.00,5,,206
2012-12-17,44,30,15,25,20,13,94,73,33,29.70,29.57,29.37,10,10,5,13,7,,0.00,0,,212
2012-12-18,44,34,23,32,21,10,90,62,24,29.81,29.64,29.37,10,10,10,22,11,31,0.00,2,,289
2012-12-19,32,26,17,26,20,13,90,76,58,30.04,29.91,29.81,10,8,0,23,7,28,0.00,7,Snow,355
2012-12-20,34,23,12,15,12,6,90,69,39,30.14,30.09,30.03,10,10,10,15,9,,0.00,0,,279
2012-12-21,46,30,13,27,17,8,80,64,44,30.14,30.07,29.96,10,10,10,14,6,,0.00,0,,216
2012-12-22,37,26,13,20,17,11,93,67,39,30.04,29.97,29.91,10,10,5,18,9,22,0.00,1,,312
2012-12-23,32,20,9,23,11,4,95,81,58,30.01,29.95,29.85,10,7,0,21,5,25,0.00,3,Fog-Snow,301
2012-12-24,15,10,5,7,4,0,85,77,67,30.23,30.08,29.99,10,10,4,14,8,16,0.00,5,Snow,360
2012-12-25,15,9,3,5,1,-2,82,74,57,30.42,30.32,30.23,10,10,5,15,9,,0.00,6,Snow,344
2012-12-26,19,10,1,11,6,-4,81,73,64,30.22,30.05,29.94,10,10,4,16,9,21,0.00,3,Snow,166
2012-12-27,16,10,3,12,8,0,89,81,69,29.94,29.90,29.84,10,5,0,13,7,,0.00,8,Snow,100
2012-12-28,15,8,2,11,7,-2,88,83,73,30.03,29.99,29.94,10,7,2,10,6,,0.00,5,Snow,293
2012-12-29,32,20,9,22,13,6,86,75,62,30.13,30.08,30.03,10,10,10,12,7,,0.00,0,,250
2012-12-30,32,22,11,22,15,6,89,71,53,30.10,29.97,29.86,10,10,10,20,11,30,0.00,1,,274
2012-12-31,24,22,20,22,19,18,94,91,86,30.14,30.11,30.08,10,8,1,13,5,,0.00,8,,319